Location: Peebles
(55.6412°N, 3.1714°W)
Time: 14:33:40
(UTC+01:00)

LEMUR 2 NALLYWACKER - Pass Details

Date: 04 July 2022
Orbit: 502 x 518 km, 97.4° (Epoch: 16 August)

Event Time Altitude Azimuth Distance (km) Brightness Sun altitude
Rises 22:53:31 0° 197° (SSW) 2,643 ? -5.8°
Reaches altitude 10° 22:55:54 10° 211° (SSW) 1,760 ? -6.0°
Maximum altitude 22:59:02 24° 267° (W) 1,112 ? -6.2°
Drops below altitude 10° 23:02:12 10° 323° (NW) 1,771 ? -6.5°
Sets 23:04:37 0° 337° (NNW) 2,663 ? -6.6°
